GW4623 Weather Reports


time (UTC)temp
F
wind
direction
speed
knots
gust
knots
rain 1hr
in
rain 24hr
in
rain mn
in
humidity
%
barometer
mb
20240723195018 71 269 0.0 1.7 0.00 0.00 0.00 83 1016.8
20240723194515 70 52 0.0 3.5 0.00 0.00 0.00 81 1016.8
20240723194014 71 101 0.9 3.5 0.00 0.00 0.00 80 1016.6
20240723193512 71 54 2.6 2.6 0.00 0.00 0.00 82 1016.7
20240723193011 70 100 1.7 1.7 0.00 0.00 0.00 85 1016.8
20240723192508 69 76 3.5 3.5 0.00 0.00 0.00 86 1017.0
20240723192008 69 54 0.9 2.6 0.00 0.00 0.00 84 1016.7
20240723191506 69 70 1.7 2.6 0.00 0.00 0.00 84 1016.9
20240723191006 68 52 1.7 3.5 0.00 0.00 0.00 84 1016.9
20240723190505 69 20 1.7 1.7 0.00 0.00 0.00 84 1016.8
20240723190005 69 150 0.9 0.9 0.00 0.00 0.00 85 1016.8
20240723185503 69 60 0.0 1.7 0.00 0.00 0.00 86 1017.0
20240723185000 68 75 0.9 2.6 0.00 0.00 0.00 86 1016.9
20240723184458 68 68 3.5 4.3 0.00 0.00 0.00 85 1016.9
20240723183956 69 70 1.7 2.6 0.00 0.00 0.00 84 1016.9
20240723183455 69 24 0.9 1.7 0.00 0.00 0.00 84 1016.9
20240723182955 69 89 0.0 0.9 0.00 0.00 0.00 85 1017.2
20240723182453 69 96 1.7 1.7 0.00 0.00 0.00 85 1017.2
20240723181951 69 86 2.6 3.5 0.00 0.00 0.00 84 1017.0
20240723181449 69 24 1.7 4.3 0.00 0.00 0.00 85 1017.0
20240723180946 69 19 0.0 1.7 0.00 0.00 0.00 86 1016.9
20240723180445 69 18 0.9 1.7 0.00 0.00 0.00 85 1017.1
20240723175944 69 89 0.0 1.7 0.00 0.00 0.00 87 1017.1
20240723175442 68 35 0.9 1.7 0.00 0.00 0.00 88 1017.1
20240723174940 68 217 0.0 0.9 0.00 0.00 0.00 89 1017.0
20240723174441 68 46 0.9 2.6 0.00 0.00 0.00 88 1017.0
20240723173940 67 323 0.0 1.7 0.00 0.00 0.00 88 1017.0
20240723173438 67 325 0.0 1.7 0.00 0.00 0.00 87 1017.2
20240723172936 67 56 0.0 0.9 0.00 0.00 0.00 87 1017.0
20240723172435 67 28 0.9 1.7 0.00 0.00 0.00 88 1017.0
20240723171935 67 35 0.9 0.9 0.00 0.00 0.00 90 1017.1
20240723171434 67 350 0.0 1.7 0.00 0.00 0.00 90 1017.2
20240723170932 67 166 0.0 0.9 0.00 0.00 0.00 90 1017.1
20240723170430 67 83 0.0 0.9 0.00 0.00 0.00 90 1017.0
20240723165928 67 54 0.9 3.5 0.00 0.00 0.00 88 1017.1
20240723165425 66 229 0.0 1.7 0.00 0.00 0.00 89 1017.1
20240723164924 66 82 0.0 2.6 0.00 0.00 0.00 89 1017.2
20240723164423 66 49 0.9 0.9 0.00 0.00 0.00 92 1017.1
20240723163921 65 49 2.6 2.6 0.00 0.00 0.00 91 1017.1
20240723163421 66 116 1.7 2.6 0.00 0.00 0.00 90 1017.2
20240723162918 66 92 0.9 4.3 0.00 0.00 0.00 89 1017.1
20240723162414 66 64 0.9 1.7 0.00 0.00 0.00 92 1017.1
20240723161913 66 98 0.0 0.9 0.00 0.00 0.00 91 1017.2
20240723161410 66 269 0.0 1.7 0.00 0.00 0.00 92 1017.2
20240723160908 66 60 0.0 1.7 0.00 0.00 0.00 91 1017.2
20240723160407 66 313 0.0 1.7 0.00 0.00 0.00 91 1017.2
20240723155906 66 288 0.0 0.9 0.00 0.00 0.00 90 1017.0
20240723155404 66 113 0.0 1.7 0.00 0.00 0.00 92 1017.1
20240723154903 66 85 1.7 1.7 0.00 0.00 0.00 90 1017.0
20240723154401 66 51 1.7 1.7 0.00 0.00 0.00 91 1017.1
20240723153858 66 48 0.0 0.9 0.00 0.00 0.00 92 1017.1
20240723153356 65 55 0.0 1.7 0.00 0.00 0.00 93 1017.0
20240723152853 64 89 0.0 1.7 0.00 0.00 0.00 92 1017.0
20240723152349 65 76 0.0 0.9 0.00 0.00 0.00 92 1017.1
20240723151849 65 49 0.0 1.7 0.00 0.00 0.00 92 1017.1
20240723151348 65 75 0.0 0.9 0.00 0.00 0.00 93 1017.0
20240723150848 65 50 0.0 0.9 0.00 0.00 0.00 93 1017.2
20240723150347 64 52 0.0 3.5 0.00 0.00 0.00 93 1017.2
20240723145845 64 89 0.0 1.7 0.00 0.00 0.00 93 1017.0
20240723145343 64 39 2.6 3.5 0.00 0.00 0.00 93 1016.7
20240723144843 64 73 1.7 3.5 0.00 0.00 0.00 93 1016.8
20240723144342 64 159 1.7 3.5 0.00 0.00 0.00 94 1016.6
20240723143838 63 50 0.9 3.5 0.00 0.00 0.00 95 1016.4
20240723143336 63 50 1.7 3.5 0.00 0.00 0.00 95 1016.3
20240723142836 63 85 3.5 8.7 0.00 0.00 0.00 95 1016.3
20240723142335 63 85 0.0 4.3 0.00 0.00 0.00 96 1016.5
20240723141834 63 47 0.0 2.6 0.00 0.00 0.00 96 1016.7
20240723141333 63 55 1.7 4.3 0.00 0.00 0.00 97 1016.7
20240723140830 63 68 1.7 1.7 0.00 0.00 0.00 98 1016.5
20240723140329 63 40 0.9 1.7 0.00 0.00 0.00 98 1016.7
20240723135828 62 59 0.9 1.7 0.00 0.00 0.00 99 1016.8
20240723135326 63 70 0.0 1.7 0.00 0.00 0.00 99 1016.9
20240723134826 62 86 0.9 1.7 0.00 0.00 0.00 99 1016.8
20240723134324 62 39 1.7 1.7 0.00 0.00 0.00 99 1016.9
20240723133823 62 51 1.7 1.7 0.00 0.00 0.00 99 1017.1
20240723133321 62 94 0.0 1.7 0.00 0.00 0.00 99 1017.0
20240723132820 62 65 1.7 1.7 0.00 0.00 0.00 99 1016.8
20240723132319 62 58 0.9 1.7 0.00 0.00 0.00 99 1017.0
20240723131819 62 93 0.9 1.7 0.00 0.00 0.00 99 1016.9
20240723131318 62 49 1.7 1.7 0.00 0.00 0.00 99 1016.6
20240723130813 63 48 0.0 1.7 0.00 0.00 0.00 99 1017.0
20240723130313 63 43 0.0 1.7 0.00 0.00 0.00 99 1016.7
20240723125812 63 58 0.0 1.7 0.00 0.00 0.00 99 1016.6
20240723125310 63 55 0.0 1.7 0.00 0.00 0.00 99 1016.7
20240723124810 63 27 1.7 2.6 0.00 0.00 0.00 99 1016.7
20240723124308 63 50 0.0 1.7 0.00 0.00 0.00 99 1016.5
20240723123805 63 80 0.9 2.6 0.00 0.00 0.00 99 1016.3
20240723123303 63 70 0.0 1.7 0.00 0.00 0.00 99 1016.1
20240723122800 63 58 0.9 1.7 0.00 0.00 0.00 99 1015.9
20240723122258 63 71 0.0 0.9 0.00 0.00 0.00 99 1016.0
20240723121758 63 65 0.0 0.9 0.00 0.00 0.00 99 1016.0
20240723121256 63 23 0.0 1.7 0.00 0.00 0.00 99 1015.9
20240723120752 63 76 0.0 0.9 0.00 0.00 0.00 99 1015.8
20240723120251 63 48 0.9 1.7 0.00 0.00 0.00 99 1015.6
20240723115749 63 75 1.7 1.7 0.00 0.00 0.00 99 1015.3
20240723115246 63 58 1.7 1.7 0.00 0.00 0.00 99 1015.8
20240723114745 62 66 0.0 1.7 0.00 0.00 0.00 99 1015.9
20240723114244 63 115 0.0 1.7 0.00 0.00 0.00 99 1015.9
20240723113739 62 77 0.0 1.7 0.00 0.00 0.00 99 1015.8
20240723113239 62 84 0.9 0.9 0.00 0.00 0.00 99 1015.7
20240723112739 63 122 0.0 1.7 0.00 0.00 0.00 99 1015.6
20240723112238 63 85 0.9 1.7 0.00 0.00 0.00 99 1015.7
20240723111737 63 32 0.9 1.7 0.00 0.00 0.00 99 1015.7
20240723111236 63 84 0.9 1.7 0.00 0.00 0.00 99 1015.8
20240723110733 63 72 1.7 1.7 0.00 0.00 0.00 99 1015.8
20240723110231 63 69 0.9 1.7 0.00 0.00 0.00 99 1015.6
20240723105729 63 85 0.9 2.6 0.00 0.00 0.00 99 1015.4
20240723105228 63 78 1.7 3.5 0.00 0.00 0.00 99 1015.4
20240723104728 63 88 2.6 2.6 0.00 0.00 0.00 99 1015.4
20240723104225 64 83 0.9 1.7 0.00 0.00 0.00 99 1015.5
20240723103723 64 89 2.6 3.5 0.00 0.00 0.00 99 1015.5
20240723103221 64 39 0.0 2.6 0.00 0.00 0.00 99 1015.5
20240723102719 64 102 0.0 1.7 0.00 0.00 0.00 99 1015.4
20240723102218 64 69 0.0 0.9 0.00 0.00 0.00 99 1015.5
20240723101715 64 89 0.0 0.9 0.00 0.00 0.00 99 1015.4
20240723101213 64 89 0.0 1.7 0.00 0.00 0.00 99 1015.7
20240723100711 64 69 0.9 1.7 0.00 0.00 0.00 99 1015.5
20240723100209 64 87 0.0 1.7 0.00 0.00 0.00 99 1015.7
20240723095707 64 50 0.0 0.9 0.00 0.00 0.00 99 1015.5
20240723095207 64 76 0.0 0.9 0.00 0.00 0.00 99 1015.5
20240723094706 64 69 0.0 0.9 0.00 0.00 0.00 99 1015.6
20240723094204 64 63 0.0 1.7 0.00 0.00 0.00 99 1015.5
20240723093703 64 72 1.7 3.5 0.00 0.00 0.00 99 1015.5
20240723093201 64 73 0.9 0.9 0.00 0.00 0.00 99 1015.5
20240723092659 64 68 0.9 1.7 0.00 0.00 0.00 99 1015.2
20240723092158 64 60 0.0 0.9 0.00 0.00 0.00 99 1015.2
20240723091657 64 79 0.0 0.9 0.00 0.00 0.00 99 1015.1
20240723091157 65 110 0.0 0.9 0.00 0.00 0.00 99 1015.1
20240723090654 65 73 0.0 0.9 0.00 0.00 0.00 99 1015.3
20240723090153 65 102 0.0 0.0 0.00 0.00 0.00 99 1015.4
20240723085650 65 100 0.0 0.9 0.00 0.00 0.00 99 1015.4
20240723085150 65 113 0.0 0.9 0.00 0.00 0.00 99 1015.3
20240723084649 65 89 0.0 0.9 0.00 0.00 0.00 99 1015.2
20240723084147 65 89 0.0 0.9 0.00 0.00 0.00 99 1015.3
20240723083647 65 214 0.0 0.0 0.00 0.00 0.00 99 1015.1
20240723083146 65 89 0.0 0.9 0.00 0.00 0.00 99 1015.0
20240723082643 65 76 0.9 0.9 0.00 0.00 0.00 99 1015.0
20240723082141 65 55 0.0 0.9 0.00 0.00 0.00 99 1015.1
20240723081640 65 75 0.0 0.9 0.00 0.00 0.00 99 1014.8
20240723081139 65 55 0.0 0.9 0.00 0.00 0.00 99 1014.7
20240723080636 65 89 0.0 0.9 0.00 0.00 0.00 99 1014.7
20240723080135 65 79 0.0 1.7 0.00 0.00 0.00 99 1015.0
20240723075630 65 124 0.0 0.0 0.00 0.00 0.00 99 1015.0
20240723075128 65 53 0.0 0.9 0.00 0.00 0.00 99 1014.8
20240723074628 65 89 0.0 1.7 0.00 0.00 0.00 99 1014.9
20240723074126 65 124 0.0 0.0 0.00 0.00 0.00 99 1015.1
20240723073625 65 147 0.0 0.0 0.00 0.00 0.00 99 1015.0
20240723073124 65 89 0.0 0.0 0.00 0.00 0.00 99 1014.8
20240723072622 65 74 0.0 0.9 0.00 0.00 0.00 99 1015.0
20240723072121 65 70 0.0 1.7 0.00 0.00 0.00 99 1014.7
20240723071621 65 89 0.0 0.0 0.00 0.00 0.00 99 1014.9
20240723071121 65 37 0.0 0.9 0.00 0.00 0.00 99 1014.8
20240723070616 65 59 0.0 1.7 0.00 0.00 0.00 99 1014.8
20240723070114 65 49 1.7 1.7 0.00 0.00 0.00 99 1014.9
20240723065606 65 83 0.0 2.6 0.00 0.00 0.00 99 1014.8
20240723065039 65 89 0.0 1.7 0.00 0.00 0.00 99 1014.9
20240723064538 65 50 0.0 0.0 0.00 0.00 0.00 99 1015.1
20240723064036 65 89 0.0 0.9 0.00 0.00 0.00 99 1015.1
20240723063533 65 119 0.9 1.7 0.00 0.00 0.00 99 1015.2
20240723063031 65 99 0.0 0.9 0.00 0.00 0.00 99 1015.0
20240723062530 65 66 0.0 0.9 0.00 0.00 0.00 99 1014.8
20240723062028 65 95 0.0 0.9 0.00 0.00 0.00 99 1014.7
20240723061526 65 104 0.0 0.9 0.00 0.00 0.00 99 1014.8
20240723061024 65 89 0.0 0.9 0.00 0.00 0.00 99 1014.9
20240723060524 65 124 0.0 0.0 0.00 0.00 0.00 99 1014.9
20240723060020 65 89 0.0 0.9 0.00 0.00 0.00 99 1014.6
20240723055514 65 89 0.0 0.9 0.00 0.00 0.00 99 1014.9
20240723055012 65 50 0.0 0.0 0.00 0.00 0.00 99 1014.8
20240723054509 65 89 0.0 0.9 0.00 0.00 0.00 99 1014.7
20240723054008 65 108 0.0 0.9 0.00 0.00 0.00 99 1014.6
20240723053505 65 89 0.0 1.7 0.00 0.00 0.00 99 1015.0
20240723053002 65 89 0.0 0.9 0.00 0.00 0.00 99 1014.8
20240723052501 64 99 0.0 0.9 0.00 0.00 0.00 99 1014.8
20240723051959 65 107 0.0 0.9 0.00 0.00 0.00 99 1014.9
20240723051437 65 56 0.0 0.9 0.00 0.00 0.00 99 1014.8
20240723050934 65 74 0.0 0.9 0.00 0.00 0.00 99 1014.7
20240723050434 65 77 0.0 0.9 0.00 0.00 0.00 99 1014.6
20240723045932 65 89 0.0 0.9 0.00 0.37 0.37 99 1014.8
20240723045430 65 89 0.0 0.9 0.00 0.37 0.37 99 1014.7
20240723044928 65 77 0.0 0.9 0.00 0.37 0.37 99 1014.8
20240723044428 65 86 0.0 0.9 0.00 0.37 0.37 99 1014.9
20240723043926 65 104 0.9 0.9 0.00 0.37 0.37 99 1014.7
20240723043424 65 89 0.0 0.9 0.00 0.37 0.37 99 1014.7
20240723042923 65 89 0.0 0.9 0.00 0.37 0.37 99 1014.8
20240723042420 65 110 0.0 0.9 0.00 0.37 0.37 99 1014.8
20240723041918 65 94 0.0 0.9 0.00 0.37 0.37 99 1014.8
20240723041417 65 89 0.0 0.9 0.00 0.37 0.37 99 1014.8
20240723040916 65 89 0.0 0.0 0.00 0.37 0.37 99 1014.7
20240723040414 65 129 0.0 0.0 0.00 0.37 0.37 99 1014.6
20240723035912 65 119 0.0 0.0 0.00 0.37 0.37 99 1014.6
20240723035412 66 124 0.0 0.0 0.00 0.37 0.37 99 1014.7
20240723034911 66 89 0.0 0.0 0.00 0.37 0.37 99 1014.7
20240723034408 66 89 0.0 0.0 0.00 0.37 0.37 99 1014.8
20240723033907 66 89 0.0 0.0 0.00 0.37 0.37 99 1014.3
20240723033406 66 129 0.0 0.0 0.00 0.37 0.37 99 1014.6
20240723032905 66 129 0.0 0.0 0.00 0.37 0.37 99 1014.4
20240723032403 66 142 0.0 0.0 0.00 0.37 0.37 99 1014.4
20240723031901 66 76 0.0 0.0 0.00 0.37 0.37 99 1014.3
20240723031400 66 89 0.0 0.9 0.00 0.37 0.37 99 1014.4
20240723030900 66 78 0.0 0.9 0.00 0.37 0.37 99 1014.4
20240723030356 66 89 0.0 0.0 0.00 0.37 0.37 99 1014.3
20240723025855 66 101 0.0 0.0 0.00 0.37 0.37 99 1014.3
20240723025355 66 110 0.0 0.9 0.00 0.37 0.37 99 1014.1
20240723024854 66 77 0.0 0.9 0.00 0.37 0.37 99 1014.1
20240723024352 66 89 0.0 0.9 0.00 0.37 0.37 99 1014.3
20240723023850 66 63 0.0 0.9 0.00 0.37 0.37 99 1014.4
20240723023350 66 89 0.0 0.9 0.00 0.37 0.37 99 1014.4
20240723022848 66 89 0.0 0.0 0.00 0.37 0.37 99 1014.3
20240723022347 66 89 0.0 0.9 0.00 0.37 0.37 99 1014.6
20240723021843 66 89 0.0 0.9 0.00 0.37 0.37 99 1014.3
20240723021341 66 89 0.0 0.9 0.00 0.37 0.37 99 1014.3
20240723020839 66 86 0.9 0.9 0.00 0.37 0.37 99 1014.4
20240723020338 66 84 0.0 0.9 0.00 0.37 0.37 99 1014.6
20240723015837 66 55 0.0 0.9 0.00 0.37 0.37 98 1014.3
20240723015335 66 89 0.0 0.9 0.00 0.37 0.37 98 1014.0
20240723014835 66 95 0.0 0.9 0.00 0.37 0.37 98 1014.1
20240723014332 66 129 0.0 0.9 0.00 0.37 0.37 98 1014.1
20240723013830 66 77 0.0 0.0 0.00 0.37 0.37 98 1013.9
20240723013329 66 106 0.0 1.7 0.00 0.37 0.37 98 1013.8
20240723012829 66 85 0.0 0.9 0.00 0.37 0.37 98 1013.9
20240723012327 66 88 0.0 0.9 0.00 0.37 0.37 98 1013.9
20240723011823 66 117 0.0 0.9 0.00 0.37 0.37 98 1014.0
20240723011321 66 76 0.0 0.0 0.00 0.37 0.37 98 1014.0
20240723010820 66 89 0.0 0.9 0.00 0.37 0.37 98 1014.1
20240723010319 66 110 0.0 0.0 0.00 0.37 0.37 98 1014.1
20240723005816 66 89 0.0 0.0 0.00 0.37 0.37 98 1014.2
20240723005315 66 162 1.7 1.7 0.00 0.37 0.37 98 1014.2
20240723004813 66 220 0.9 1.7 0.00 0.37 0.37 98 1014.1
20240723004310 66 217 0.0 1.7 0.00 0.37 0.37 98 1014.1
20240723003808 66 89 0.0 0.9 0.00 0.37 0.37 98 1013.8
20240723003306 66 132 0.0 1.7 0.00 0.37 0.37 98 1014.1
20240723002800 66 109 0.0 0.9 0.00 0.37 0.37 98 1014.0
20240723002259 66 53 0.9 0.9 0.00 0.37 0.37 98 1014.0
20240723001757 66 134 0.9 1.7 0.00 0.37 0.37 98 1014.0
20240723001256 66 147 0.0 0.9 0.00 0.37 0.37 98 1014.3
20240723000754 66 68 1.7 1.7 0.00 0.37 0.37 98 1014.4
20240723000255 66 245 1.7 1.7 0.00 0.37 0.37 98 1014.3
20240722235751 66 33 0.9 2.6 0.00 0.37 0.37 98 1013.9
20240722235250 66 52 1.7 1.7 0.00 0.37 0.37 98 1014.0
20240722234748 66 37 1.7 1.7 0.00 0.37 0.37 98 1013.9
20240722234247 66 63 1.7 1.7 0.00 0.37 0.37 98 1013.8
20240722233745 66 96 0.9 1.7 0.00 0.37 0.37 98 1013.7
20240722233245 66 142 0.0 0.9 0.00 0.37 0.37 97 1013.8
20240722232744 66 103 0.0 0.9 0.00 0.37 0.37 97 1013.6
20240722232243 66 40 0.0 1.7 0.00 0.37 0.37 97 1013.7
20240722231741 66 241 0.0 1.7 0.02 0.37 0.37 97 1013.6
20240722231239 67 140 0.0 1.7 0.02 0.37 0.37 97 1014.2
20240722230734 67 45 1.7 2.6 0.07 0.37 0.37 96 1014.6
20240722230233 66 107 0.9 1.7 0.18 0.37 0.37 96 1014.6
20240722225731 65 56 0.0 1.7 0.26 0.35 0.35 96 1014.2
20240722225229 65 87 0.9 1.7 0.35 0.33 0.33 95 1014.6
20240722224728 65 230 1.7 1.7 1.18 0.29 0.29 93 1015.0
20240722224228 65 69 0.9 4.3 1.55 0.26 0.26 89 1015.4
20240722223727 70 117 1.7 4.3 0.37 0.06 0.06 88 1015.3
20240722223227 72 277 1.7 3.5 0.00 0.00 0.00 79 1013.8
20240722222726 74 324 1.7 5.2 0.00 0.00 0.00 76 1013.3
20240722222225 80 75 2.6 4.3 0.00 0.00 0.00 68 1013.6
20240722221723 80 177 0.0 4.3 0.00 0.00 0.00 66 1012.8
20240722221222 80 84 1.7 2.6 0.00 0.00 0.00 67 1012.7
20240722220722 80 266 1.7 1.7 0.00 0.00 0.00 65 1012.9
20240722220221 80 58 0.9 3.5 0.00 0.00 0.00 64 1013.0
20240722215718 81 25 0.0 2.6 0.00 0.00 0.00 64 1012.8
20240722215217 81 178 0.9 2.6 0.00 0.00 0.00 63 1012.8
20240722214717 81 206 0.9 4.3 0.00 0.00 0.00 63 1013.0
20240722214216 81 99 2.6 2.6 0.00 0.00 0.00 63 1012.8
20240722213714 81 163 2.6 3.5 0.00 0.00 0.00 62 1012.9
20240722213213 81 254 5.2 9.6 0.00 0.00 0.00 62 1013.2
20240722212711 81 230 1.7 2.6 0.00 0.00 0.00 62 1013.2
20240722212210 81 198 0.9 2.6 0.00 0.00 0.00 65 1013.4
20240722211708 82 176 0.9 3.5 0.00 0.00 0.00 62 1013.4
20240722211206 82 301 0.9 3.5 0.00 0.00 0.00 62 1013.5
20240722210705 83 221 1.7 2.6 0.00 0.00 0.00 60 1013.5
20240722210204 82 310 0.0 3.5 0.00 0.00 0.00 59 1013.2
20240722205702 82 256 0.9 2.6 0.00 0.00 0.00 57 1013.7
20240722205158 83 227 1.7 5.2 0.00 0.00 0.00 57 1013.9
20240722204658 84 133 1.7 3.5 0.00 0.00 0.00 56 1013.7
20240722204156 84 250 1.7 4.3 0.00 0.00 0.00 56 1013.7
20240722203656 84 318 0.9 3.5 0.00 0.00 0.00 55 1014.1
20240722203154 85 206 0.9 2.6 0.00 0.00 0.00 56 1014.1
20240722202648 85 241 1.7 2.6 0.00 0.00 0.00 52 1014.1
20240722202146 84 216 0.9 2.6 0.00 0.00 0.00 56 1013.9
20240722201645 84 14 0.0 3.5 0.00 0.00 0.00 54 1013.9
20240722201144 85 284 1.7 2.6 0.00 0.00 0.00 54 1014.1
20240722200642 85 240 0.9 5.2 0.00 0.00 0.00 54 1014.2
20240722200141 85 257 1.7 3.5 0.00 0.00 0.00 53 1014.1
20240722195639 85 251 0.0 2.6 0.00 0.00 0.00 55 1014.0